Old Crow,

9:54 PM PST on December 17, 2017 (GMT -0800)
Old Crow

Weather History for CZOC - September, 2013

Change the Weather History Date:

Sunday, September 1, 2013

  Actual Average Record
Temperature  
Mean Temperature 34 °F -  
Max Temperature 49 °F - - ()
Min Temperature 18 °F - - ()
Degree Days  
Heating Degree Days 32    
Moisture  
Dew Point 18 °F    
Average Humidity 54    
Maximum Humidity 83    
Minimum Humidity 28    
Precipitation  
Precipitation 0.00 in - - ()
Sea Level Pressure  
Sea Level Pressure 29.99 in    
Wind  
Wind Speed 3 mph ()    
Max Wind Speed 14 mph    
Max Gust Speed -    
T = Trace of Precipitation, MM = Missing Value Source: Averaged Metar Reports

Daily Weather History Graph

Daily Weather History Graph

Search for Another Location

Airport or City:

Trip Planner

Search our weather history database for the weather conditions in past years. The results will help you decide how hot, cold, wet, or windy it might be!

Date:

Astronomy

Sep. 01, 2013 Rise Set
Actual Time 6:49 AM PDT 9:46 PM PDT
Civil Twilight 5:45 AM PDT 10:49 PM PDT
Nautical Twilight 4:04 AM PDT 12:26 AM PDT
Astronomical Twilight Sun does not rise Sun does not rise
Moon 2:03 AM PDT (9/1) 8:23 PM PDT (9/1)
Length of Visible Light 17h 03m
Length of Day
14h 57m
Waning Crescent, 13% of the Moon is Illuminated
Sep 1
Waning Crescent
Sep 5
New
Sep 12
First Quarter
Sep 19
Full
Sep 26
Last Quarter

Hourly Weather History & Observations

Time (PDT) Temp. Windchill Dew Point Humidity Pressure Visibility Wind Dir Wind Speed Gust Speed Precip Events Conditions
12:00 AM 28.9 °F - 16.2 °F 59% 29.96 in - West 2.3 mph - N/A   Unknown
1:00 AM 28.0 °F - 18.0 °F 66% 29.97 in - WSW 2.3 mph - N/A   Unknown
2:00 AM 30.2 °F 25.4 °F 19.6 °F 65% 29.98 in - WSW 4.6 mph - N/A   Unknown
3:00 AM 23.7 °F 19.3 °F 16.9 °F 75% 29.99 in - WNW 3.5 mph - N/A   Unknown
4:00 AM 24.1 °F - 16.2 °F 72% 29.99 in - WNW 1.2 mph - N/A   Unknown
5:00 AM 21 °F - 15 °F 69% 30.00 in - NNE 1.2 mph - -  
5:00 AM 21.4 °F - 15.3 °F 77% 30.00 in - North 2.3 mph - N/A   Unknown
6:00 AM 20.5 °F - 14.7 °F 78% 30.00 in - NNE 1.2 mph - N/A   Unknown
7:00 AM 18.9 °F - 14.4 °F 83% 30.01 in - NNE 2.3 mph - N/A   Unknown
8:00 AM 21.4 °F - 16.5 °F 82% 30.02 in - North 2.3 mph - N/A   Unknown
9:00 AM 27.7 °F - 21.4 °F 77% 30.02 in - NE 2.3 mph - N/A   Unknown
10:00 AM 31.3 °F - 21.9 °F 68% 30.03 in - NNE 2.3 mph - N/A   Unknown
11:00 AM 35 °F - 19 °F 39% 30.03 in - East 2.3 mph - -  
11:00 AM 35.4 °F - 19.0 °F 51% 30.03 in - East 2.3 mph - N/A   Unknown
12:00 PM 40.1 °F 38.0 °F 16.5 °F 39% 30.02 in - ESE 3.5 mph - N/A   Unknown
1:00 PM 43.2 °F - 14.4 °F 31% 30.02 in - ESE 2.3 mph - N/A   Unknown
2:00 PM 46.0 °F 43.9 °F 15.3 °F 29% 30.01 in - East 4.6 mph - N/A   Unknown
3:00 PM 47.1 °F - 15.3 °F 28% 30.01 in - ENE 5.8 mph - N/A   Unknown
4:00 PM 48.0 °F - 16.0 °F 28% 30.00 in - ENE 5.8 mph - N/A   Unknown
5:00 PM 48.7 °F - 17.4 °F 29% 29.99 in - East 2.3 mph - N/A   Unknown
6:00 PM 48.6 °F - 17.2 °F 29% 29.99 in - ENE 8.1 mph - N/A   Unknown
7:00 PM 48.7 °F - 18.5 °F 30% 29.98 in - ENE 8.1 mph - N/A   Unknown
8:00 PM 47.3 °F - 18.5 °F 32% 29.97 in - NE 6.9 mph - N/A   Unknown
9:00 PM 43.2 °F 39.0 °F 20.1 °F 40% 29.96 in - NNE 6.9 mph - N/A   Unknown
10:00 PM 40.5 °F 33.6 °F 25.3 °F 55% 29.96 in - NNE 11.5 mph - N/A   Unknown
11:00 PM 39 °F - 28 °F 52% 29.96 in - NNE 12.7 mph - -  
11:00 PM 38.8 °F 30.8 °F 27.9 °F 65% 29.96 in - NNE 13.8 mph - N/A   Unknown